Location: Seattle
(47.6064°N, 122.3308°W)
Time: 04:54:06
(UTC-08:00)

N. Korean satellite - Pass Details

Date: 03 December 2022
Orbit: 407 x 441 km, 97.3° (Epoch: 05 February)

Event Time Altitude Azimuth Distance (km) Brightness Sun altitude
Rises 05:22:08 0° 15° (NNE) 2,527 10.3 -22.3°
Reaches altitude 10° 05:24:14 10° 19° (NNE) 1,641 9.3 -21.9°
Maximum altitude 05:27:43 62° 100° (E) 531 6.9 -21.3°
Drops below altitude 10° 05:31:09 10° 183° (S) 1,604 9.3 -20.8°
Sets 05:33:10 0° 186° (S) 2,464 10.2 -20.4°
